Theta_e
309 309 309 310 310 310 310 309 309 310 310 309 309 308 308 308 309 308 307 308 307 308 311 310 308 309 309 308 308 309 309 308 308 308 308 307 307 307 307 307 308 308 307 307 308 308 308 311 312 312 312 313 311 309 309 309 309 309 310 310 311 314 317 317 318 317 316 316 315 315 316 316 316 317 316 317 319 318 318 321 325 325 323 324 326 322 325
311 310 311 311 310 311 311 310 309 309 309 308 308 308 307 307 308 308 307 307 307 309 309 309 309 308 307 308 309 309 308 308 308 308 308 308 307 308 308 308 308 308 307 307 308 308 308 311 312 311 312 313 311 309 309 309 309 309 310 311 312 315 316 317 321 322 320 320 320 321 320 316 314 315 314 314 317 316 317 321 322 323 323 324 325 322 323
311 311 311 311 311 311 311 310 309 309 308 307 307 308 307 307 308 308 307 307 307 307 306 306 307 307 307 308 309 309 308 308 308 308 308 308 308 309 309 308 307 307 307 307 308 307 308 309 310 311 312 313 311 308 309 309 308 309 311 312 313 314 314 316 321 323 322 323 323 322 319 314 312 314 314 314 315 315 318 324 323 323 327 324 322 322 323
311 311 311 311 311 311 311 310 309 308 307 307 307 307 306 307 309 308 307 307 306 306 305 305 306 306 307 309 309 308 308 308 308 308 308 307 307 308 308 308 308 307 307 307 307 306 307 309 309 310 311 312 311 310 310 309 309 310 312 313 313 313 314 314 317 319 319 320 318 315 314 313 313 314 314 314 315 314 317 322 323 327 329 324 323 326 325
312 311 311 311 311 311 310 309 308 307 306 306 307 307 306 307 308 307 307 307 306 306 306 305 306 306 307 309 309 308 308 308 308 308 308 308 307 308 308 308 308 308 307 307 307 307 308 308 309 309 309 311 311 310 309 309 310 311 312 311 311 312 313 313 314 314 314 314 313 311 313 313 313 314 314 314 315 314 317 320 322 326 326 321 325 332 326
311 311 311 311 311 310 308 308 307 306 306 306 307 307 307 307 307 306 306 307 307 307 307 306 306 306 307 309 309 308 308 309 308 308 308 308 308 309 310 309 307 307 307 307 307 308 308 308 309 310 310 310 310 310 310 310 310 312 312 310 309 311 312 312 312 312 312 312 312 312 313 313 312 313 313 314 314 315 318 320 320 323 325 323 328 336 330
311 311 311 311 310 308 307 307 306 305 306 306 306 307 307 307 307 306 307 307 307 307 307 306 306 307 308 309 309 308 308 308 308 308 308 308 307 308 309 309 307 307 307 307 307 307 308 308 309 309 309 308 309 310 311 311 311 312 312 310 309 311 312 312 312 312 312 312 312 312 312 312 313 313 313 314 316 320 325 327 325 324 324 323 326 331 329
311 311 311 310 309 308 307 306 306 306 306 306 306 306 307 307 307 307 307 307 307 307 307 306 306 307 308 309 309 308 308 308 308 308 308 308 308 307 308 307 307 307 307 307 307 307 307 308 308 307 307 308 308 309 311 312 312 312 311 310 310 310 312 312 311 313 314 312 313 314 313 313 313 313 314 317 322 329 334 334 332 329 326 325 326 326 326
311 311 310 309 308 307 307 306 305 306 307 306 306 306 307 307 308 308 307 308 308 308 307 306 306 308 308 308 308 308 307 308 308 308 308 308 308 307 307 307 307 307 307 307 307 307 307 307 307 307 307 307 307 308 310 312 313 312 310 310 310 310 311 311 311 314 316 314 315 316 313 313 315 315 318 322 326 331 335 337 337 335 335 336 329 324 329
311 310 310 309 308 307 307 306 306 305 306 306 306 307 307 307 308 308 307 308 308 308 307 306 307 308 308 308 308 307 307 308 308 308 308 308 307 307 307 307 307 307 308 308 308 307 307 307 307 307 307 307 307 307 307 309 311 312 311 311 310 310 311 311 311 315 317 315 314 314 315 320 324 323 321 324 325 326 330 335 336 334 336 339 334 331 337
310 310 309 309 308 307 307 306 306 306 306 306 306 307 307 307 308 308 307 307 308 307 306 306 307 308 308 307 307 307 307 308 308 308 308 308 307 308 307 307 307 308 308 308 308 307 307 308 308 308 307 307 307 307 306 307 308 310 311 311 310 310 310 311 311 314 316 315 313 316 322 328 330 325 320 321 324 324 326 331 333 331 331 335 335 336 339
310 310 309 309 308 307 306 306 306 307 307 307 307 307 307 307 308 308 308 308 308 307 306 306 307 307 307 307 307 307 308 308 308 307 307 307 307 308 307 307 307 308 308 307 308 308 308 308 308 308 307 306 306 306 306 306 307 309 310 310 311 310 310 311 311 312 315 315 316 323 329 330 327 323 319 320 323 322 323 328 331 328 327 329 331 333 335
310 311 310 309 308 307 307 306 307 308 308 307 307 308 307 307 308 308 308 308 308 307 307 307 307 307 307 307 307 308 308 308 307 307 307 307 307 307 307 307 307 308 308 308 307 307 308 309 309 308 308 308 307 307 307 306 306 308 309 309 310 310 311 312 312 312 314 316 319 325 328 326 325 324 321 320 322 322 323 329 331 326 324 326 328 329 332
312 312 311 309 308 307 307 307 308 308 308 308 308 308 308 308 308 308 308 308 308 308 307 308 308 308 308 308 308 308 308 307 307 307 307 307 307 307 307 307 307 307 307 308 307 307 308 309 309 309 310 311 311 311 311 309 307 308 309 309 310 310 311 312 312 313 314 315 317 320 323 326 328 325 320 319 321 322 323 328 331 327 323 324 326 327 328
312 312 311 309 308 308 308 308 308 308 308 308 309 308 308 308 308 308 308 308 308 308 308 308 308 308 308 308 308 308 308 308 307 307 307 307 307 307 307 307 307 308 307 307 307 308 309 309 309 310 311 312 312 313 313 312 310 309 309 310 309 310 311 311 312 313 314 315 315 319 326 330 327 322 318 318 320 322 322 326 331 328 323 323 325 325 325
312 312 311 309 308 308 308 308 308 308 308 308 309 309 309 309 308 308 308 308 308 309 308 308 308 308 308 308 308 308 308 308 308 307 307 307 307 307 307 307 308 308 308 308 307 308 310 310 310 311 311 311 312 312 313 313 312 310 310 309 309 309 310 310 311 312 313 313 315 319 326 327 322 319 318 318 321 322 323 329 334 328 323 323 324 324 324
312 312 311 310 309 309 308 308 308 308 309 308 309 309 309 309 309 308 309 308 308 308 308 308 308 308 308 308 308 308 308 308 308 308 308 308 307 307 307 307 308 307 308 309 309 309 310 310 310 310 311 311 311 311 312 314 313 311 311 310 309 310 310 310 312 312 312 314 315 318 322 323 319 318 318 318 320 323 329 337 336 326 321 323 322 323 324
312 312 312 311 310 309 308 308 308 309 309 309 309 309 309 309 309 309 309 309 308 308 308 308 308 308 308 308 308 308 308 308 308 308 308 308 307 307 307 307 308 308 308 308 309 309 309 310 310 310 311 311 310 310 312 313 313 313 312 311 311 312 312 312 312 312 312 314 314 317 321 322 318 317 318 319 323 328 333 335 329 322 320 320 320 322 323
313 313 313 312 311 310 309 309 308 308 308 308 308 309 309 309 309 309 309 309 309 309 309 309 308 308 309 308 308 308 309 309 309 309 308 308 307 307 307 307 307 308 308 308 309 309 309 310 310 310 310 311 310 310 311 312 312 313 312 313 313 314 314 314 314 312 313 314 314 318 322 320 317 318 319 321 326 329 329 326 321 319 320 318 317 319 320
314 314 313 313 312 311 310 310 309 308 308 308 308 308 309 309 309 309 309 309 309 309 309 309 309 309 309 308 309 309 308 308 309 308 308 308 308 307 308 309 308 308 308 308 309 309 309 310 310 309 310 310 310 310 311 311 310 310 312 313 313 313 315 316 315 315 316 318 318 321 322 319 317 319 319 318 320 321 321 321 320 319 318 317 316 317 317
314 314 313 313 312 312 311 311 311 310 309 308 308 308 308 309 309 309 309 309 308 308 308 309 309 309 309 309 309 309 309 309 309 308 308 308 308 308 309 309 308 308 309 309 309 309 309 309 309 309 310 310 310 310 310 311 311 309 310 312 312 312 314 315 315 315 317 319 319 319 318 317 316 318 318 316 315 314 314 317 318 317 316 316 315 315 316
314 313 313 313 313 312 312 312 311 311 310 309 308 308 308 309 309 309 309 309 309 308 308 309 309 309 310 310 310 310 310 310 309 309 309 309 308 308 308 308 308 308 308 308 308 309 309 309 309 310 310 310 310 310 310 311 312 310 310 311 312 312 312 313 314 313 313 315 316 316 315 314 314 315 314 313 312 311 311 312 313 313 314 314 313 314 315
314 313 313 313 313 313 312 312 312 311 311 310 310 309 309 309 309 308 308 309 309 308 308 308 309 310 310 310 310 310 310 310 310 309 309 309 308 308 308 308 308 308 308 307 308 308 308 309 309 310 310 309 309 310 311 311 311 311 310 311 312 312 311 312 313 311 311 313 315 313 312 311 312 313 313 311 311 310 310 311 311 310 311 312 312 313 314
314 314 314 314 314 313 313 313 312 312 311 311 310 310 309 309 309 309 309 309 309 309 309 309 309 310 311 311 311 311 311 310 310 310 309 309 308 309 309 308 308 308 308 308 308 308 308 308 309 309 310 310 309 310 311 311 310 310 310 310 310 311 311 311 310 309 312 315 314 311 310 310 311 313 313 311 311 310 310 310 310 309 310 310 310 312 314
314 314 314 314 314 314 314 313 313 312 312 311 311 311 310 310 310 309 310 309 309 309 309 309 310 310 311 311 311 312 311 310 310 310 310 309 309 309 309 308 308 308 308 308 308 308 308 308 309 310 309 309 310 310 310 310 310 310 310 310 310 310 311 310 309 309 311 313 311 309 309 311 312 313 312 311 311 311 310 310 310 309 310 310 311 312 314
315 315 315 314 314 314 314 314 313 313 312 312 311 311 310 310 310 310 310 310 310 309 309 309 310 310 311 312 312 312 312 311 310 310 310 310 310 310 309 308 308 308 308 308 307 308 308 308 309 309 309 309 309 309 309 310 310 310 310 310 309 310 309 309 308 308 309 310 310 309 310 312 314 313 311 311 311 310 310 309 309 310 310 310 311 313 314
315 315 315 316 315 315 315 315 314 313 313 312 312 311 310 310 310 310 309 309 310 310 309 309 310 310 311 312 312 312 312 311 310 310 309 309 310 310 309 309 309 308 308 308 308 308 308 308 308 309 309 309 309 309 310 310 310 310 310 310 309 309 309 308 309 309 309 309 309 309 309 311 311 310 310 311 311 310 310 310 310 310 310 309 311 313 314
316 315 316 316 316 316 316 315 315 314 314 313 313 312 311 311 310 310 309 309 310 311 310 309 309 310 311 312 312 312 312 311 310 310 309 309 309 310 309 309 309 309 308 308 307 307 308 308 307 308 308 308 308 309 310 310 310 310 310 309 309 309 309 309 309 310 309 309 309 309 309 309 309 309 310 311 311 310 310 310 310 311 310 309 310 312 313
316 316 316 316 316 316 316 316 316 316 315 314 314 313 313 312 311 310 309 309 310 311 310 309 310 311 311 312 312 312 311 310 310 310 310 309 309 309 309 309 309 309 308 308 308 307 307 307 307 307 308 308 309 310 310 310 310 310 309 309 309 309 309 309 309 309 309 309 308 309 309 309 310 310 311 311 311 311 310 310 311 310 310 309 310 311 313
317 318 317 317 317 317 317 316 317 317 316 315 314 313 313 312 311 310 309 309 311 310 309 309 311 312 311 312 313 312 311 310 310 310 310 310 310 309 309 309 309 308 308 308 308 308 308 308 308 308 308 308 309 310 309 309 310 309 309 309 309 308 308 308 308 308 308 308 308 308 309 309 310 311 312 313 313 312 311 311 311 310 310 310 310 312 314
319 319 319 319 319 318 317 317 317 317 317 317 315 314 312 312 312 311 309 309 311 310 308 309 311 312 311 312 313 312 311 310 310 310 310 309 309 309 309 309 309 309 309 308 308 309 309 309 309 309 308 308 309 309 308 309 309 309 309 309 308 308 308 308 307 307 307 307 307 308 308 309 310 311 312 314 314 313 312 312 311 311 311 311 310 312 314
319 320 320 320 320 319 319 318 318 317 317 317 316 315 314 312 312 311 310 310 311 310 309 310 312 312 311 312 312 312 312 311 310 310 310 310 309 310 310 310 310 310 310 309 309 309 309 309 309 309 308 308 308 308 308 309 309 309 308 308 308 308 307 307 307 307 307 307 307 307 308 308 309 309 311 313 315 314 313 313 312 312 312 311 311 312 314
319 320 320 320 320 320 320 319 318 318 318 317 317 316 316 314 312 312 311 311 311 310 309 310 311 312 312 313 313 313 312 311 311 310 310 311 311 310 310 311 311 310 310 310 310 310 310 309 309 309 309 308 307 308 308 309 309 308 308 308 308 307 307 307 306 306 306 307 307 307 307 307 307 309 311 313 314 314 314 314 314 313 312 311 312 312 312
318 318 318 319 319 319 320 319 318 318 318 318 317 317 316 315 313 312 312 312 311 311 310 310 311 314 314 313 313 314 313 312 312 311 311 310 311 311 311 311 311 310 310 311 310 310 310 309 309 309 310 308 308 308 308 308 308 308 308 308 307 307 306 306 306 306 306 306 306 306 306 306 307 309 311 312 313 314 314 314 314 314 314 313 312 311 312
317 317 317 318 318 319 320 319 319 319 318 318 317 317 316 315 314 313 313 312 311 311 311 310 312 314 315 316 317 316 314 313 314 313 312 311 310 311 310 310 310 311 311 311 310 309 309 309 309 310 310 309 308 309 309 308 308 308 308 307 307 306 306 306 306 305 305 306 306 305 305 306 307 308 309 310 311 313 314 314 314 314 314 314 313 312 312
317 316 317 318 318 319 320 319 319 319 318 318 318 317 316 315 314 313 313 313 312 312 311 311 311 312 314 317 318 315 313 314 315 314 313 312 312 311 311 311 310 310 310 309 309 310 310 309 309 310 310 309 309 310 309 309 308 308 307 307 306 306 306 306 305 305 305 305 305 305 305 305 306 306 307 308 310 312 313 314 315 314 314 314 314 313 312
316 316 317 317 318 320 321 320 319 318 318 318 318 316 316 315 314 314 314 313 313 313 312 312 312 312 312 315 316 315 314 315 315 314 314 314 313 311 311 313 312 310 309 311 312 311 311 310 310 310 310 309 309 310 309 309 309 308 307 307 306 306 305 305 305 305 305 305 305 304 304 305 305 305 306 307 309 310 312 313 314 315 315 315 314 314 313
316 317 317 317 319 321 321 320 318 318 318 318 317 316 316 315 314 315 314 314 314 314 312 312 313 313 313 314 316 316 315 315 315 316 315 315 314 313 312 313 313 311 312 313 312 310 310 311 311 311 310 309 308 309 309 309 309 309 308 307 307 306 305 305 305 305 305 305 304 304 304 304 304 305 305 306 307 308 310 311 313 315 316 316 316 315 314
316 316 317 318 320 320 320 319 318 317 318 318 318 317 316 316 317 318 317 315 314 314 313 313 314 314 314 315 316 316 315 314 315 316 315 315 316 315 314 314 313 312 312 313 311 310 312 313 310 310 311 310 308 309 309 309 309 309 308 308 307 306 305 305 305 305 305 305 304 304 303 303 304 304 304 305 306 307 309 311 313 314 316 317 317 316 315
316 317 317 318 319 319 319 318 318 318 318 318 318 317 316 316 318 319 318 317 318 317 314 314 315 315 316 317 317 317 316 315 316 316 316 316 315 314 313 314 312 312 315 315 312 310 313 313 310 310 311 310 309 309 309 309 309 309 308 307 307 307 306 305 305 305 305 304 304 303 303 303 303 303 304 304 305 305 307 309 311 313 315 317 318 317 316
316 317 318 318 319 320 320 319 318 318 318 318 319 320 318 316 316 317 317 319 321 320 315 314 316 316 316 317 317 317 316 316 316 316 317 316 314 313 314 314 312 313 316 316 311 311 313 313 311 311 311 310 309 310 309 309 309 309 308 307 307 306 306 306 305 305 304 304 304 304 303 303 303 303 303 304 304 304 305 307 309 311 314 316 318 317 317
317 317 317 319 320 321 320 319 318 318 317 318 320 321 317 314 315 317 316 317 318 318 316 316 317 316 316 317 317 317 317 317 317 317 317 316 315 315 316 314 312 313 314 312 311 312 314 313 311 312 311 309 309 310 309 308 309 309 308 307 306 305 306 305 305 304 304 304 304 304 304 303 303 303 303 303 304 304 305 306 308 309 312 315 316 317 317
317 317 318 321 322 321 319 319 318 318 318 319 318 316 315 316 317 316 315 315 316 316 315 315 315 315 316 317 317 317 317 317 317 317 317 317 315 314 314 314 312 311 310 311 312 314 314 312 311 311 310 309 309 309 308 307 308 309 308 307 306 305 305 305 304 304 304 304 304 304 304 303 303 303 303 303 303 304 304 305 306 308 311 313 315 317 318
317 317 319 321 321 320 319 318 317 316 317 318 317 315 315 318 319 317 315 315 314 313 313 313 312 312 315 316 317 317 318 317 317 317 317 316 315 314 314 315 314 311 310 313 316 315 313 311 310 310 310 309 309 308 307 306 307 308 309 308 306 305 304 304 304 304 304 304 303 303 303 303 303 303 303 303 303 303 303 304 305 307 309 311 314 315 317
317 318 319 318 317 316 316 316 315 313 314 316 318 319 318 318 319 318 316 313 311 311 312 311 310 311 314 315 316 317 317 317 317 317 315 314 315 314 313 314 315 313 313 314 315 313 312 311 311 310 310 310 309 307 307 306 306 307 308 308 307 305 304 304 304 304 304 304 303 302 302 303 303 303 303 303 303 303 303 303 304 305 306 308 310 311 313
318 318 317 316 315 314 312 313 316 316 314 314 316 319 318 316 315 315 313 311 311 311 311 310 311 313 315 316 317 317 318 317 317 316 314 314 315 313 311 312 314 314 313 312 312 312 312 312 311 310 309 309 308 307 306 305 305 305 307 308 308 306 304 304 304 304 304 305 304 303 302 302 302 302 302 302 303 303 303 303 303 304 305 305 306 307 309
318 316 314 315 316 314 312 314 316 316 313 312 312 313 313 312 312 311 312 312 312 311 310 310 312 313 314 315 315 314 315 316 316 314 313 313 314 313 312 313 313 312 312 311 311 311 312 311 310 309 309 308 308 307 306 305 304 304 305 307 308 306 304 304 304 304 304 305 305 304 303 302 301 302 302 302 302 303 303 303 303 304 304 304 304 304 306
317 315 315 316 316 314 313 314 315 313 312 313 313 312 311 312 311 311 312 312 311 310 310 310 311 311 311 312 313 312 311 312 312 312 312 313 313 313 314 314 312 311 312 312 312 313 312 310 309 309 309 308 308 307 306 305 304 304 304 306 308 306 305 304 304 304 304 305 305 305 304 302 301 301 302 302 302 302 302 303 303 303 303 304 304 304 304
316 316 316 316 315 313 312 312 313 312 312 313 313 312 312 312 311 311 312 311 311 310 310 310 311 311 310 309 312 313 312 311 312 312 313 314 315 314 313 312 311 311 312 313 312 311 311 310 309 309 308 307 307 307 306 305 305 304 303 305 307 306 305 305 304 304 304 304 304 304 304 303 302 301 301 302 301 301 301 302 302 303 303 303 303 304 304
315 315 315 315 315 314 312 312 313 314 314 313 313 312 313 313 311 311 312 311 310 310 310 310 310 310 308 310 314 315 312 311 314 315 315 315 315 313 312 312 313 313 313 312 309 308 309 310 309 309 308 307 307 307 306 305 304 304 303 305 307 306 305 304 304 303 303 302 302 302 303 304 302 301 301 301 301 301 301 301 301 301 302 302 302 303 303
314 314 314 314 315 315 314 314 315 316 315 314 313 313 314 313 312 311 311 311 310 310 310 309 310 311 312 313 314 311 308 310 313 314 312 313 314 314 314 314 314 312 311 310 308 307 309 310 309 308 308 308 307 306 305 304 304 304 304 305 307 306 304 303 302 302 302 302 301 301 302 303 303 302 301 301 301 301 301 301 300 300 301 301 301 302 302
314 315 315 315 315 315 315 314 315 315 314 314 314 314 314 314 313 312 311 311 311 310 309 308 310 313 314 312 309 309 309 310 312 311 310 310 311 313 314 314 312 310 310 309 308 308 308 309 309 308 308 308 307 306 305 304 304 304 304 305 306 305 303 303 302 301 301 301 301 301 302 303 303 302 301 301 301 301 301 301 301 300 300 300 300 301 301
Wind_Speed
26 26 27 27 27 27 27 27 27 27 27 27 27 24 18 12 6 14 27 24 13 8 7 5 4 3 4 5 4 5 6 6 7 10 11 7 5 5 3 2 2 1 1 1 1 1 0 1 2 1 2 2 3 1 4 5 4 3 2 3 5 4 2 2 4 4 7 13 11 4 4 3 2 2 3 4 4 3 3 5 4 4 4 4 4 8 8
26 26 26 27 27 27 28 26 24 23 23 23 24 20 15 11 8 14 25 24 12 7 4 3 2 4 6 4 5 8 6 7 7 5 6 7 4 2 2 3 3 2 2 2 0 1 0 1 1 1 1 2 3 4 1 3 2 2 3 3 5 4 1 0 2 3 4 5 2 1 3 4 2 2 4 4 6 8 7 5 3 3 6 8 7 9 8
25 26 25 26 26 26 27 24 21 19 19 19 19 17 13 9 5 9 21 26 21 12 5 2 1 3 5 3 5 7 6 7 9 5 5 8 5 1 2 4 4 3 4 3 2 1 1 1 1 1 0 2 4 5 3 1 0 4 7 7 5 3 2 0 1 2 3 4 3 2 2 5 4 5 7 7 7 9 6 2 1 4 6 7 7 8 6
25 26 25 25 26 26 25 23 19 17 16 17 16 13 10 6 3 5 12 19 22 15 10 9 3 0 4 3 3 6 4 6 9 7 5 10 10 4 3 5 4 4 5 4 4 3 2 2 1 1 2 3 3 6 6 4 3 6 8 7 5 2 2 3 4 4 4 4 2 1 3 6 7 10 14 11 8 6 3 1 2 3 3 4 7 8 8
25 25 24 25 25 24 24 22 19 16 15 15 14 11 7 4 2 3 5 8 12 11 12 15 8 3 4 1 2 6 5 4 7 6 4 9 11 5 2 4 4 3 5 4 3 3 2 1 2 3 4 3 3 5 8 6 5 5 4 5 4 2 3 4 7 8 7 7 7 6 6 8 9 12 16 15 13 9 5 6 6 3 2 5 5 4 10
25 24 23 24 23 22 22 21 17 16 15 15 13 9 7 4 2 3 4 3 3 4 7 11 9 6 4 1 1 6 6 5 5 4 4 7 7 3 1 3 3 2 3 2 3 4 3 3 3 3 3 3 3 4 4 5 4 3 2 4 2 2 3 3 6 8 8 9 9 8 7 9 10 11 14 15 14 12 10 11 11 7 5 6 5 5 12
25 24 23 23 22 20 21 19 16 14 14 14 12 9 7 5 3 3 5 3 2 3 7 9 6 5 5 2 3 4 6 6 4 3 4 5 4 2 1 3 5 5 4 2 2 3 2 4 3 2 3 3 3 3 3 3 3 3 1 2 1 2 3 5 6 8 9 9 9 9 9 9 9 11 14 14 13 14 13 13 13 12 11 9 12 14 15
24 23 22 21 20 19 19 18 15 13 13 11 10 8 6 5 2 3 4 3 4 5 6 6 4 4 4 2 2 3 5 6 5 3 4 4 2 1 2 6 6 6 5 3 4 5 5 6 5 3 3 3 2 2 3 3 3 2 0 1 2 3 3 4 4 4 6 8 8 8 7 7 9 12 13 11 10 11 10 9 9 9 10 10 14 16 13
23 22 21 19 18 18 18 16 13 12 12 10 8 7 5 5 4 4 3 2 3 3 3 3 2 2 2 2 3 4 5 6 6 5 5 6 4 2 4 7 7 6 7 5 7 10 8 9 11 11 11 10 8 6 5 4 3 2 3 2 1 2 3 4 2 2 4 4 4 4 6 7 9 10 9 7 6 8 8 4 4 4 5 6 8 9 7
22 21 20 19 18 17 16 14 12 11 10 8 7 5 5 6 7 5 1 1 2 2 2 1 1 1 2 4 5 5 5 7 7 5 4 5 7 8 8 8 6 5 7 7 10 14 14 17 22 24 23 22 20 19 17 12 8 5 4 2 2 3 2 4 2 2 3 2 0 4 6 5 5 5 2 4 4 7 9 6 9 8 5 4 5 5 5
22 21 20 20 18 17 16 14 11 9 8 6 6 7 6 6 7 6 1 1 1 1 1 1 1 1 3 6 6 5 6 7 7 5 2 3 10 13 11 10 6 3 7 12 17 22 24 27 29 29 28 27 26 26 24 20 15 11 7 3 3 4 4 4 3 2 2 2 4 5 4 3 3 5 5 6 3 5 9 7 9 12 8 4 5 6 8
22 22 21 19 17 16 15 12 9 7 6 5 6 8 6 5 7 6 2 1 1 1 1 2 3 4 7 7 7 6 7 8 9 8 6 8 13 15 11 7 4 4 12 20 25 26 24 23 21 20 21 22 23 24 21 16 17 18 15 8 4 4 5 5 3 2 2 3 4 2 5 2 2 4 8 9 3 5 11 7 7 16 15 12 12 11 11
23 22 21 20 17 14 12 11 9 7 6 4 5 6 6 5 7 6 3 2 1 2 3 4 6 8 9 8 7 8 10 11 13 13 10 9 11 12 10 6 6 12 20 25 26 21 13 9 9 8 9 10 11 14 16 15 15 16 16 12 7 5 5 4 3 2 1 2 0 3 3 1 1 2 7 10 4 6 11 7 8 17 17 15 14 14 14
23 23 22 20 17 14 11 10 8 7 6 5 5 6 5 4 5 6 4 2 1 3 4 4 5 5 5 6 7 7 9 12 13 11 8 7 9 11 12 12 13 17 21 21 17 10 3 2 4 5 4 3 3 5 8 12 13 14 15 12 9 7 5 4 3 3 1 1 2 3 3 2 1 2 5 6 4 6 8 4 4 12 14 15 15 15 16
24 24 22 19 15 13 12 11 9 7 6 7 7 7 6 5 5 5 5 3 2 3 5 4 3 3 4 7 7 5 5 6 7 8 8 8 9 11 13 15 15 16 16 12 6 2 1 2 4 4 3 3 3 3 2 4 8 13 14 11 9 7 6 4 3 2 1 0 2 3 2 3 2 1 4 6 7 9 6 4 1 8 15 18 17 15 17
25 24 21 18 15 13 11 10 7 5 5 5 6 7 6 5 4 4 5 5 2 1 4 5 5 5 6 8 8 5 3 3 3 6 6 4 8 14 17 16 13 14 15 9 2 0 1 1 2 4 4 4 4 4 3 2 5 9 11 12 11 10 8 5 3 1 0 1 1 3 3 3 1 4 8 10 12 9 2 3 1 7 16 21 19 16 17
24 23 19 16 13 11 9 8 6 4 5 5 5 6 4 3 3 3 4 5 4 5 9 10 8 7 6 6 6 4 3 4 4 3 3 4 9 15 18 17 13 13 14 8 1 1 2 2 2 3 4 4 4 4 4 1 6 7 9 11 11 10 7 5 3 3 3 3 3 3 2 1 3 7 12 17 14 5 3 4 1 9 17 23 21 18 19
23 21 18 15 13 11 9 8 6 4 6 6 5 5 3 2 1 2 4 5 4 5 9 8 7 7 6 5 6 5 5 6 4 2 4 6 7 10 17 17 11 10 12 7 1 2 3 2 3 3 3 3 3 4 4 3 3 5 7 8 6 5 5 4 4 4 5 5 3 2 3 2 6 11 18 19 11 1 4 2 4 11 18 24 23 20 22
20 19 16 14 13 12 10 9 7 4 4 4 4 4 2 1 1 2 4 5 5 7 10 9 9 11 10 9 10 9 7 7 5 3 3 3 5 12 17 10 3 6 9 5 1 2 3 2 2 2 3 4 3 4 5 4 3 3 5 6 3 3 4 3 4 5 4 4 3 2 2 1 9 17 19 14 7 2 2 4 7 12 18 23 24 23 25
18 16 15 14 13 12 11 10 9 6 3 2 3 2 1 1 0 1 3 5 6 10 12 10 10 11 11 11 12 12 10 8 6 4 2 3 8 15 11 2 2 7 6 4 3 3 2 4 4 2 3 4 4 4 4 2 3 5 2 1 1 1 2 2 1 3 2 3 2 1 1 5 15 17 12 10 8 5 10 10 9 15 20 23 25 26 29
16 15 14 14 14 13 13 12 12 10 7 3 1 2 2 2 2 1 2 3 5 8 8 7 10 12 11 11 12 12 12 11 9 7 8 9 11 8 2 2 6 5 2 2 4 2 2 3 3 2 3 3 3 4 6 3 3 6 4 2 3 4 2 0 1 2 1 1 1 2 1 7 14 11 6 7 7 11 19 17 14 17 22 24 26 28 31
15 13 13 13 13 13 12 12 13 12 10 8 5 5 4 4 4 1 2 2 5 8 9 9 10 9 7 7 7 7 9 10 9 9 11 12 11 7 6 8 8 4 2 2 2 2 2 3 2 3 3 3 3 5 5 3 3 5 6 4 3 6 6 3 1 2 2 2 1 3 4 11 14 13 9 8 9 13 21 21 18 21 23 24 26 29 31
13 12 12 12 13 12 11 11 12 12 11 11 8 6 5 4 4 2 1 3 7 10 9 7 5 4 4 5 5 6 8 8 7 7 9 10 9 8 8 8 6 4 4 4 3 3 3 2 2 3 3 3 4 4 3 3 3 4 5 4 2 7 10 5 2 4 5 4 2 4 10 17 14 7 7 7 8 11 19 21 21 23 24 23 24 26 29
12 11 11 12 12 12 10 10 11 12 12 11 10 8 6 4 3 2 1 4 7 8 7 4 4 5 7 7 5 5 7 8 7 6 6 8 7 5 5 3 3 5 7 11 11 8 5 3 3 2 2 3 4 4 3 3 4 5 6 4 2 8 13 7 3 7 6 1 3 8 15 22 16 1 6 6 7 11 18 21 22 24 25 23 22 22 25
11 10 10 11 12 13 12 10 9 10 11 10 9 8 7 5 4 3 3 4 5 5 4 5 4 5 6 7 8 9 9 6 7 7 8 10 10 8 6 5 5 6 10 15 17 12 7 4 2 2 3 4 4 4 4 3 4 6 6 5 4 8 12 8 5 8 7 3 5 17 23 19 5 8 7 6 12 17 22 23 24 25 24 21 19 19 22
11 10 10 10 11 12 13 12 10 9 9 10 9 8 7 6 5 3 3 3 4 3 3 4 4 5 5 6 9 11 11 8 6 8 10 11 13 13 12 12 11 12 14 16 16 13 8 3 1 1 2 4 6 5 4 4 5 5 5 8 9 10 9 8 7 7 5 4 10 20 20 8 5 3 9 15 20 25 26 25 26 25 22 19 17 16 18
11 11 11 11 10 11 11 12 12 10 8 8 8 8 7 6 4 3 2 2 2 2 1 4 7 7 5 6 11 14 12 8 6 6 7 8 10 13 15 15 15 16 17 14 11 8 5 2 2 3 3 5 6 5 4 4 4 2 4 10 13 9 6 7 7 5 5 6 12 16 12 4 7 19 26 25 25 27 26 25 25 23 20 19 20 19 17
11 10 11 11 11 10 10 11 12 11 9 6 5 5 6 6 5 3 2 2 1 1 4 9 11 9 6 7 12 14 12 9 7 5 4 4 4 6 9 11 12 12 12 10 7 5 3 3 4 5 5 6 5 4 4 5 3 2 5 13 16 13 10 10 9 6 7 12 16 17 13 11 17 25 28 26 25 25 25 25 25 22 19 18 19 21 19
11 10 10 11 10 10 10 11 11 12 11 8 5 3 3 5 5 4 2 2 1 3 7 8 7 6 5 7 11 14 13 10 7 4 3 3 4 2 2 4 5 7 8 8 5 3 3 4 5 5 6 7 6 4 4 4 3 4 9 16 20 20 19 18 15 11 11 16 21 21 18 17 21 25 28 28 25 24 24 23 20 19 19 17 16 18 17
11 10 10 10 10 10 10 10 10 11 12 11 8 4 2 4 5 4 3 1 1 4 6 4 2 3 4 6 9 12 13 10 6 5 5 6 6 5 5 5 6 7 8 8 6 4 3 4 7 8 11 12 7 2 3 4 2 4 11 18 21 23 24 24 20 17 17 20 23 23 20 20 22 24 23 22 19 19 21 19 16 16 18 17 16 14 12
10 11 10 10 10 9 10 10 10 11 11 11 10 5 2 3 4 4 3 2 1 3 5 4 4 4 4 4 6 10 11 9 8 7 8 8 8 8 7 6 6 6 6 6 6 6 5 5 6 8 11 12 8 2 3 4 2 4 14 21 21 22 25 25 24 23 22 23 25 22 19 20 22 22 20 18 15 13 14 15 14 14 14 14 14 14 11
10 11 11 11 11 10 10 10 10 10 10 10 9 6 4 4 5 3 2 1 1 3 4 3 3 3 3 2 4 6 7 7 8 9 10 9 8 8 7 6 7 7 6 5 4 4 5 6 6 7 9 10 6 1 2 3 3 7 17 21 21 23 25 24 25 27 26 25 24 20 18 22 26 23 19 16 14 14 14 14 12 11 12 12 13 13 11
11 12 13 12 12 11 11 10 10 10 10 9 8 7 6 5 5 4 2 1 1 2 3 2 1 2 2 1 1 2 2 3 4 5 6 6 5 5 4 4 6 7 7 5 3 3 5 5 4 5 7 7 4 1 1 3 6 12 18 20 21 24 24 23 25 29 28 27 25 20 19 24 26 22 17 14 13 13 14 13 12 12 14 13 13 14 13
11 13 13 12 12 11 10 10 9 9 9 9 8 7 6 5 4 3 3 2 1 2 2 2 1 1 2 2 1 1 1 1 1 1 1 1 1 0 2 2 3 5 6 6 4 4 5 4 4 4 5 5 4 2 1 5 11 15 18 19 21 22 22 22 26 30 29 27 26 25 25 26 25 22 19 18 16 14 12 12 12 13 15 16 15 14 14
11 13 13 13 12 10 9 8 9 10 10 9 9 8 7 5 4 4 3 2 2 2 2 1 0 0 1 2 1 1 2 3 3 3 2 2 2 2 0 1 1 1 2 4 4 3 4 5 4 4 4 5 4 1 1 7 13 16 17 19 21 22 21 21 25 30 29 25 25 27 27 27 26 25 24 22 20 17 13 10 11 12 14 16 17 17 16
12 14 14 13 12 9 7 6 7 9 10 10 10 9 7 5 4 5 4 3 3 3 3 2 1 2 2 1 2 3 3 3 4 4 3 3 2 1 1 1 1 0 1 2 2 2 3 4 3 3 4 3 3 4 7 10 13 14 16 19 20 21 21 21 23 27 27 24 24 25 26 25 25 26 26 25 22 19 17 14 12 11 13 15 16 18 19
13 15 15 14 11 8 5 5 7 9 10 11 10 8 6 4 4 5 5 4 4 5 4 3 2 4 4 2 2 2 2 3 3 2 2 2 2 2 2 2 2 1 0 1 1 1 1 1 2 1 2 2 3 8 12 13 12 12 14 17 19 20 21 21 22 24 24 23 23 25 26 25 25 26 27 27 25 22 21 19 17 13 13 14 14 15 19
14 15 15 13 9 6 4 6 9 10 10 9 8 6 4 3 3 4 4 3 3 4 5 4 4 5 5 3 2 3 3 2 1 1 1 1 1 0 0 1 1 1 0 2 1 1 0 1 1 1 1 3 7 12 14 13 12 12 13 15 17 19 20 21 22 23 23 23 24 26 28 28 28 28 28 27 26 24 22 20 18 14 13 13 13 12 15
14 15 15 12 8 5 6 9 11 11 8 7 5 3 3 2 2 2 2 2 3 3 4 4 5 5 6 4 3 4 4 2 0 0 1 1 1 0 0 0 0 1 1 1 1 1 1 1 1 1 1 3 8 12 13 12 12 13 14 14 16 17 19 21 22 22 22 22 24 26 27 27 27 27 27 27 27 24 21 20 18 15 12 12 13 12 13
15 16 15 11 8 8 9 10 10 8 5 4 3 3 3 2 1 1 2 2 2 3 4 4 5 6 6 6 5 4 4 3 2 1 1 2 2 2 1 1 1 2 2 1 3 2 2 1 1 1 1 3 7 12 13 11 11 12 13 15 15 17 19 20 21 22 22 23 24 26 26 26 26 26 26 27 28 27 24 22 21 18 13 10 11 12 11
16 16 14 11 10 10 10 8 7 5 4 4 3 2 1 1 2 2 1 2 1 3 4 4 4 4 5 6 6 4 4 4 4 2 1 1 3 3 1 0 1 2 1 2 3 3 2 1 0 1 2 6 11 13 13 11 9 9 11 14 15 15 17 19 21 22 22 23 25 26 27 27 27 27 27 26 27 29 28 25 22 21 16 11 10 12 10
16 15 13 10 9 8 7 5 5 4 3 3 3 2 1 1 2 2 1 1 3 4 4 4 5 6 6 6 6 5 4 3 3 1 0 1 2 2 1 0 1 1 1 3 3 3 2 1 1 2 3 9 13 14 14 12 9 7 8 12 14 15 15 17 20 21 22 23 24 26 27 28 28 28 28 28 29 31 31 28 25 23 20 14 11 12 10
15 14 11 8 5 5 5 4 4 3 2 2 2 2 2 2 2 1 1 3 4 4 3 5 8 9 8 6 5 4 3 3 3 2 1 1 2 1 1 1 1 1 2 3 3 3 1 1 1 3 6 10 13 14 14 13 10 6 5 8 13 14 14 16 19 20 21 23 24 25 26 28 29 28 29 31 32 33 35 33 29 26 21 15 12 12 11
13 11 8 5 3 3 3 2 2 2 1 1 1 0 2 3 2 1 2 4 5 4 7 10 10 8 5 3 2 2 3 3 2 2 1 1 1 1 1 1 1 1 1 2 2 1 1 1 1 5 9 11 13 14 14 13 10 8 6 6 10 12 13 15 18 20 20 22 24 25 26 28 29 29 30 31 32 34 36 35 32 29 24 19 15 13 11
10 7 4 3 2 2 1 1 1 1 0 1 1 3 2 3 3 3 3 5 7 9 13 15 11 6 5 3 2 2 2 2 1 1 1 1 0 0 1 2 1 1 2 1 1 1 0 0 2 7 10 12 12 13 14 14 12 10 7 5 7 11 12 14 17 19 19 21 24 26 26 28 29 29 30 30 30 31 33 34 34 33 30 26 24 22 17
8 5 2 1 1 1 1 0 1 0 2 3 4 4 5 5 6 5 6 8 10 12 15 14 9 5 3 2 1 2 2 2 1 1 0 1 1 1 1 0 1 3 2 1 2 1 1 2 4 7 10 10 10 12 13 13 12 11 9 6 6 9 12 13 16 18 19 20 23 25 27 28 29 30 30 31 30 29 30 31 33 34 34 32 32 30 26
6 4 1 0 1 1 1 2 3 4 4 5 7 8 8 8 9 9 9 9 11 14 14 10 5 2 1 1 0 1 1 1 0 1 2 1 0 1 2 2 1 1 1 0 2 2 3 4 7 8 8 10 10 11 12 13 13 14 13 8 5 7 11 13 14 17 18 20 22 24 26 29 30 31 30 31 31 29 28 27 29 31 33 33 33 33 31
6 4 2 1 1 2 2 3 5 6 7 8 9 10 9 10 11 11 10 10 13 15 13 7 3 1 1 1 0 0 1 2 2 1 2 2 1 1 2 2 1 1 1 2 3 3 4 7 9 7 7 9 10 10 11 13 13 16 17 11 5 6 10 11 12 15 17 18 20 22 24 26 29 30 29 29 30 30 28 26 25 27 30 31 31 32 33
6 4 3 2 2 3 4 5 5 7 10 12 12 10 10 11 12 11 9 9 12 12 9 5 2 1 2 2 2 1 1 2 1 1 2 2 1 0 1 1 1 2 2 3 4 4 7 9 9 7 6 8 9 9 11 12 12 16 18 13 6 6 9 10 11 13 15 16 18 20 20 22 25 27 27 27 28 28 28 27 26 25 26 27 28 29 30
6 5 4 4 3 4 4 3 3 5 9 12 13 11 10 11 11 8 6 7 10 9 6 3 2 2 2 2 3 2 1 1 1 2 1 1 1 1 1 1 2 3 3 3 4 7 10 11 9 7 6 8 9 9 10 11 12 15 16 12 6 6 8 9 10 12 13 14 17 18 18 18 20 22 24 25 25 25 27 29 29 27 25 24 25 26 27
4 4 4 5 6 6 5 5 5 6 9 11 12 11 10 10 10 8 6 6 7 7 4 1 1 2 3 2 1 1 1 1 2 2 1 1 1 2 1 2 4 4 3 3 5 8 10 10 9 8 8 9 9 9 9 10 12 14 14 10 5 4 6 8 10 12 12 13 15 16 15 16 17 18 19 22 24 25 26 28 30 30 29 27 26 25 24
4 3 4 6 9 10 10 10 11 11 12 14 14 13 11 10 9 7 6 6 5 3 2 1 0 2 2 1 0 1 1 1 1 0 1 2 1 2 3 3 3 3 4 5 6 8 8 8 8 8 9 9 10 10 10 10 12 14 12 7 3 3 5 7 9 11 12 13 14 14 13 13 14 15 17 19 22 24 25 25 26 28 29 30 29 28 26
Wind_Direction
346 345 343 345 348 348 349 350 352 353 355 359 4 6 12 22 8 3 10 9 11 61 75 14 17 54 341 322 317 321 338 5 5 9 20 19 8 21 36 29 36 57 359 319 338 48 217 200 160 184 234 221 213 189 39 14 337 325 282 291 315 306 265 265 278 279 273 271 271 266 264 257 190 246 322 347 329 334 292 261 224 201 206 172 210 254 254
346 345 343 345 348 347 348 352 354 357 2 5 5 5 7 8 5 16 20 19 26 70 64 2 15 3 339 337 1 0 12 22 15 17 20 9 1 15 360 4 38 26 334 324 277 313 147 157 155 187 233 240 203 182 94 34 11 323 310 325 336 326 274 21 348 341 303 280 277 41 2 11 35 307 308 315 327 338 317 263 215 231 211 177 197 242 247
344 344 345 345 346 345 345 351 357 3 9 11 8 5 2 2 12 21 24 32 48 71 76 49 87 353 351 345 358 8 14 13 14 24 26 14 2 333 2 20 43 28 347 340 323 314 158 167 319 359 207 265 224 197 196 155 258 293 301 308 311 296 247 191 108 148 206 222 197 175 322 336 323 296 299 308 332 341 328 315 326 265 230 187 201 236 236
342 342 344 343 343 343 344 350 360 8 14 15 14 13 10 11 18 1 12 33 46 56 50 37 44 358 10 357 351 11 356 345 3 15 30 17 2 350 20 23 32 27 8 356 326 305 211 180 319 297 254 270 238 210 211 223 271 284 299 317 318 264 228 221 209 208 219 233 226 212 292 301 297 299 302 303 308 312 310 289 245 247 242 219 226 242 247
341 341 343 341 340 342 343 349 1 10 16 19 17 20 30 39 33 359 355 14 25 28 25 22 15 334 358 342 323 7 1 333 351 2 23 12 358 347 41 42 48 25 358 345 300 290 278 264 273 255 247 251 266 248 227 231 271 279 301 339 338 274 247 235 239 244 250 269 282 287 286 280 279 289 294 295 297 297 274 240 248 287 310 246 239 248 256
340 341 340 339 340 341 344 350 0 7 13 18 21 28 40 52 73 34 22 9 9 14 359 356 348 328 335 334 352 2 0 356 1 349 344 360 2 360 30 43 44 6 337 322 285 294 303 279 256 253 262 265 297 292 247 232 240 232 301 352 350 275 271 245 249 261 261 266 274 273 271 270 270 272 277 282 286 285 270 251 250 252 248 269 301 274 251
339 340 340 339 340 340 342 348 358 4 6 9 19 34 44 65 97 38 19 359 301 305 313 322 333 330 327 3 28 356 349 2 14 336 317 336 3 12 316 326 342 329 315 289 263 275 286 282 273 263 276 266 261 287 277 247 204 180 269 328 204 242 270 243 247 267 267 259 262 265 262 263 268 266 263 266 274 279 273 257 243 235 237 263 287 276 261
340 340 339 339 338 336 339 345 353 359 357 358 16 36 39 47 55 347 350 319 289 300 310 317 337 341 337 1 358 333 345 1 1 323 289 285 320 19 299 302 313 309 304 280 243 249 252 266 272 266 282 276 229 238 255 226 185 161 219 289 213 213 260 267 256 262 265 256 252 252 249 254 270 271 264 267 285 298 290 266 250 243 239 246 259 265 269
340 339 339 338 334 332 336 342 348 354 353 351 9 34 29 9 353 329 316 303 306 311 313 320 334 340 339 353 349 343 347 358 353 314 262 246 250 262 285 301 307 302 301 283 263 269 264 263 271 273 274 265 246 241 232 190 164 180 208 221 186 195 270 306 313 270 270 247 220 253 276 275 269 266 271 288 319 333 329 327 334 306 268 263 262 260 275
341 340 338 335 333 335 338 344 349 353 353 351 353 1 354 345 342 335 297 278 332 327 310 323 353 334 311 329 344 334 317 336 346 325 271 246 264 268 266 279 295 302 294 284 287 294 291 283 282 278 271 262 254 252 245 224 199 181 182 200 185 175 251 288 273 261 274 247 277 305 294 276 241 222 271 341 348 340 333 352 11 355 318 282 267 257 293
343 341 338 336 339 342 342 346 352 352 350 348 332 323 327 332 332 328 292 222 285 254 228 292 306 309 315 322 329 319 314 331 336 323 299 273 290 293 284 280 282 268 278 293 306 307 301 293 287 279 267 256 249 246 242 233 220 201 174 160 193 190 216 257 261 251 265 313 338 308 248 206 179 138 76 14 355 355 337 334 12 8 352 332 308 297 316
344 341 339 339 340 339 340 352 8 8 358 343 312 308 314 323 324 317 274 237 313 183 204 275 262 278 303 309 310 313 317 322 318 309 294 281 291 300 300 287 262 271 301 311 316 314 308 299 291 279 263 251 244 241 237 232 223 208 190 174 169 183 207 236 244 230 275 345 352 252 195 173 167 123 58 19 15 9 336 318 32 23 4 353 344 328 326
344 341 339 339 341 343 350 4 14 6 352 332 306 307 309 312 319 310 258 236 273 214 253 282 267 270 287 296 304 315 316 317 320 316 298 280 287 301 311 300 277 299 316 319 317 314 311 304 296 285 269 253 244 237 229 224 218 206 193 182 171 172 204 232 229 215 294 360 183 206 200 45 12 81 32 18 31 13 343 329 40 27 7 356 348 330 326
344 342 340 342 349 356 358 357 352 341 327 311 301 306 307 297 302 300 280 255 249 243 258 284 287 284 292 302 310 317 317 319 323 318 302 292 287 292 309 318 314 319 324 320 313 312 319 318 304 299 291 270 253 241 225 217 208 193 183 178 170 169 194 228 227 194 171 247 245 268 288 296 332 24 12 359 333 335 331 304 18 22 9 356 345 333 332
344 342 342 347 351 350 344 337 333 325 311 298 291 289 295 295 291 284 271 262 279 265 241 239 279 311 312 311 314 319 314 316 321 315 309 303 290 296 321 334 336 338 334 322 314 331 2 329 311 311 315 295 277 268 229 202 191 180 171 165 165 179 198 217 221 190 119 46 282 302 271 204 182 331 329 311 298 305 299 242 281 13 4 353 345 337 337
345 343 346 347 342 337 335 337 339 330 310 298 289 285 291 297 288 271 261 261 268 267 247 251 281 302 304 303 304 303 294 283 304 316 317 313 309 320 336 346 352 355 348 336 316 342 330 304 298 298 287 280 285 276 250 188 147 150 155 159 170 189 210 228 244 252 60 113 241 260 228 188 208 319 317 311 307 312 290 196 187 5 355 349 343 339 343
346 346 346 343 341 347 350 353 1 349 319 302 288 290 304 304 281 257 251 250 242 264 280 284 285 284 287 300 305 298 283 286 298 310 315 315 313 320 335 346 358 4 358 350 328 335 330 258 274 291 269 265 280 283 279 153 126 138 153 167 181 194 205 215 224 232 236 227 239 260 239 261 341 329 316 312 311 318 156 175 359 355 348 346 342 338 344
348 348 349 349 355 6 3 356 359 342 318 313 301 300 319 323 286 221 234 243 240 269 289 293 283 276 280 295 301 297 293 298 300 290 299 299 297 314 328 334 344 358 357 357 2 331 318 270 283 294 277 276 283 297 326 19 97 130 144 158 181 191 188 197 206 220 237 230 234 282 262 296 344 323 315 318 324 29 135 143 4 349 344 347 346 338 342
351 352 356 2 7 9 4 1 3 347 317 307 305 316 335 322 287 214 230 234 229 261 287 294 288 291 298 295 288 288 298 305 303 311 318 298 309 326 326 320 325 346 344 350 5 320 309 310 314 289 292 318 329 333 344 3 32 75 135 153 158 165 168 175 195 214 229 213 217 266 232 357 339 320 323 352 32 79 32 41 26 1 351 350 349 345 348
356 359 6 16 21 19 17 14 10 4 350 288 283 310 14 106 144 214 228 227 244 272 289 297 296 300 304 295 288 288 294 294 288 284 261 260 315 333 338 333 349 345 338 340 350 336 322 326 325 312 316 324 327 335 343 4 36 30 51 154 52 74 173 156 188 237 223 184 200 219 189 342 339 329 337 34 61 349 347 11 18 9 3 354 350 351 352
2 7 19 29 31 30 28 23 19 20 31 51 153 161 127 130 131 162 231 228 254 279 295 312 314 312 307 298 296 294 288 286 284 276 267 278 305 332 7 276 318 334 341 341 338 320 313 323 320 314 309 306 318 331 331 341 22 14 4 6 35 29 15 37 9 355 34 131 40 85 156 340 0 19 39 59 59 13 1 6 4 3 4 356 349 349 351
7 15 29 37 37 37 34 31 29 31 38 53 89 130 142 146 148 166 265 265 275 283 295 312 314 311 309 308 310 303 295 300 301 283 270 275 291 296 262 272 295 302 286 320 319 288 310 314 300 311 310 305 326 324 323 339 356 357 2 13 58 43 8 306 257 357 344 259 293 60 35 358 18 58 61 35 45 25 6 3 360 353 353 353 350 346 349
13 22 33 40 42 42 39 38 39 39 42 50 65 94 125 145 154 163 279 326 316 305 307 325 329 326 342 342 317 292 290 296 299 290 269 259 272 291 285 281 296 301 302 323 309 273 284 298 287 305 319 326 330 315 315 354 349 347 3 1 21 27 10 343 293 330 313 256 224 56 22 353 353 53 64 19 24 15 357 355 353 347 345 349 350 345 345
16 26 33 40 46 47 44 43 44 43 45 49 55 68 93 120 126 102 30 344 341 330 322 335 357 4 8 11 5 333 307 284 274 285 270 239 243 273 290 300 332 324 326 341 335 304 279 284 280 276 313 337 340 323 319 6 8 352 357 352 343 12 11 6 346 337 328 256 85 29 353 328 314 200 105 33 9 356 344 338 338 339 340 343 346 344 345
17 25 31 37 46 49 47 46 46 47 49 52 53 59 70 83 87 71 30 351 351 350 328 320 347 10 4 4 13 8 348 312 272 259 254 250 254 262 263 274 305 314 325 337 333 311 284 276 279 288 325 353 10 348 325 350 358 348 4 20 350 348 358 358 346 340 328 294 359 354 340 324 297 142 113 24 348 332 325 322 323 329 334 338 343 346 347
16 22 26 33 42 47 47 45 44 46 52 56 56 57 62 68 77 73 40 357 336 330 303 294 320 356 1 4 11 3 349 334 301 269 267 275 277 274 272 273 283 300 316 326 322 307 285 268 301 301 316 356 8 350 313 325 338 342 17 15 345 330 342 346 332 330 327 322 346 347 345 359 87 46 323 323 323 317 313 312 314 319 325 329 335 341 346
17 18 19 25 32 36 40 41 41 41 47 55 57 57 59 62 67 73 66 30 341 343 285 288 313 342 7 8 2 355 347 342 328 297 291 296 286 275 274 276 284 303 320 328 329 321 302 298 341 334 330 345 348 329 299 316 332 343 14 2 350 344 348 345 336 337 347 344 340 337 332 320 309 307 305 306 308 307 304 303 304 308 315 318 319 323 331
17 16 16 20 23 26 27 30 32 34 34 39 50 54 52 51 49 39 37 52 47 305 273 290 312 340 7 2 358 358 356 353 350 332 318 331 318 283 279 286 298 319 335 347 359 1 348 346 347 343 343 344 337 323 315 317 332 27 5 353 353 355 352 347 346 338 326 326 327 324 311 286 285 293 297 300 298 293 291 292 293 297 303 306 308 311 316
18 16 14 17 20 20 19 18 19 24 26 23 23 41 50 42 38 26 13 39 33 296 292 301 323 352 2 354 358 5 6 4 6 11 25 52 61 56 343 326 343 2 11 16 19 14 360 354 345 338 342 340 329 320 337 344 15 29 358 349 351 354 354 353 349 335 323 327 328 322 311 298 294 297 300 299 294 286 283 283 283 286 291 293 294 300 307
15 12 7 8 10 11 12 11 10 15 21 19 17 26 60 37 28 24 20 24 305 301 313 320 324 339 346 352 1 10 16 24 35 50 65 74 72 64 60 60 55 44 37 32 23 11 3 353 345 346 354 356 352 348 350 353 19 15 352 350 352 354 355 355 352 344 336 334 332 328 320 313 313 315 313 309 301 289 277 271 268 272 278 282 284 289 300
4 3 359 354 352 352 354 357 360 6 12 14 15 21 38 11 2 12 31 36 287 302 319 304 284 310 344 5 8 12 24 40 60 75 81 78 73 70 71 69 59 44 33 28 22 18 14 358 341 345 357 4 11 30 338 341 4 354 349 351 354 353 352 353 352 351 346 341 341 343 340 336 336 334 329 321 313 299 283 274 270 268 268 271 272 276 289
355 353 352 348 342 338 338 341 346 352 359 5 8 5 356 347 342 347 15 28 303 323 332 315 303 327 339 353 9 18 34 55 69 77 82 81 78 78 73 55 38 29 20 20 26 16 8 359 342 340 354 3 10 17 338 353 11 349 347 350 353 353 354 353 352 354 354 351 351 351 345 344 346 345 338 328 315 304 296 288 278 269 269 271 262 255 265
348 347 345 343 339 335 333 333 337 342 345 351 353 344 337 341 343 340 345 344 323 337 341 330 314 322 309 296 15 24 41 70 81 83 87 91 87 76 56 28 21 22 21 26 28 7 4 5 347 340 355 8 17 34 359 359 357 349 348 351 354 354 354 354 355 357 358 357 358 356 346 342 343 346 351 351 338 318 305 295 287 277 274 273 262 249 248
342 344 343 340 338 336 335 335 337 339 341 345 344 334 328 330 327 324 338 351 344 328 321 311 289 311 311 307 243 222 273 264 204 184 125 127 174 7 11 354 2 20 24 21 14 3 5 4 346 336 345 350 354 15 12 347 349 349 350 353 356 356 357 359 0 1 1 359 358 357 356 355 356 358 1 3 360 347 323 302 295 288 275 269 265 257 253
343 343 342 339 337 336 336 338 340 340 342 346 342 334 331 326 305 291 307 342 348 324 285 258 211 84 344 325 297 251 280 278 250 236 227 229 247 267 350 11 357 13 15 8 6 4 1 355 348 343 340 335 342 17 360 339 344 350 353 355 357 360 1 0 360 360 0 360 357 356 358 3 5 4 2 2 3 3 349 323 307 295 281 271 264 255 250
340 341 340 339 338 336 334 340 344 341 339 341 339 335 333 324 294 276 275 279 289 286 268 255 233 175 171 235 273 263 274 281 261 246 235 227 234 229 168 148 137 231 292 357 15 360 349 357 1 349 345 349 352 350 348 347 349 351 354 357 1 4 4 2 360 359 360 0 360 358 359 1 3 4 4 3 3 6 4 356 341 313 290 280 269 258 250
339 341 343 342 340 336 333 340 342 338 335 336 337 334 327 314 287 278 274 264 264 264 257 257 254 219 201 214 273 262 261 267 254 247 245 228 218 206 178 155 128 127 330 5 34 220 284 19 63 25 347 357 349 345 350 356 355 352 354 1 7 10 8 6 5 4 2 1 2 2 2 3 5 5 5 4 3 4 6 4 357 340 315 299 285 268 258
342 343 344 343 340 336 336 335 333 332 335 337 336 330 316 297 278 273 265 249 253 255 245 248 258 233 207 202 256 253 243 248 251 245 251 241 232 16 65 129 130 142 268 319 313 202 284 18 82 107 319 344 357 358 359 360 358 356 0 7 11 13 14 13 12 10 6 3 1 1 1 3 5 6 7 6 4 3 4 2 0 354 335 317 304 281 264
343 342 341 340 336 327 324 326 327 329 333 339 335 315 302 305 304 295 278 252 245 240 229 238 256 238 210 210 261 264 242 231 16 129 194 210 219 182 141 232 182 99 56 321 230 172 45 2 3 5 312 331 355 3 3 2 3 5 5 6 9 12 16 18 18 16 13 9 6 5 5 6 6 6 8 8 7 7 7 4 1 358 345 329 321 301 271
340 338 334 330 326 323 324 327 331 334 340 351 348 325 317 319 290 286 329 328 272 224 220 244 271 267 243 239 257 259 232 224 239 229 200 210 210 183 131 146 161 110 56 290 219 182 126 67 336 348 307 312 343 1 5 5 6 8 8 9 10 10 13 18 22 21 19 17 16 15 15 14 12 11 12 12 12 12 11 9 8 5 355 340 334 324 294
335 332 326 321 323 328 331 335 345 353 1 11 2 332 314 316 274 263 356 6 290 262 259 258 266 274 257 242 242 246 243 242 245 245 249 229 199 169 134 149 148 110 13 249 198 153 99 75 182 225 301 327 344 359 6 5 3 8 13 16 16 13 12 18 22 21 19 19 18 18 18 19 19 19 18 18 19 19 17 15 15 14 9 356 347 341 321
328 326 323 321 329 340 344 350 4 8 14 25 8 325 269 299 306 294 230 229 267 290 293 268 268 291 294 273 257 255 253 243 237 230 93 207 200 177 164 354 65 70 225 204 158 105 55 37 204 236 322 348 356 3 5 2 357 3 16 21 22 20 18 20 23 23 21 20 19 18 20 22 23 24 24 24 26 28 26 23 21 21 18 5 349 344 337
324 324 326 329 340 356 358 358 4 5 22 64 28 339 323 336 331 300 263 271 276 285 292 294 303 311 306 282 252 240 227 222 236 243 201 205 210 173 102 25 30 98 161 147 105 68 28 161 203 285 333 356 5 7 7 2 354 354 18 28 26 24 25 27 28 26 24 23 22 20 21 24 26 29 31 31 32 33 32 29 27 28 26 16 360 352 350
322 322 324 324 339 5 1 351 5 16 23 60 91 217 311 316 302 251 281 300 294 292 303 311 314 310 293 264 237 223 212 212 236 250 248 247 245 128 97 273 261 176 124 94 70 42 207 167 259 318 340 357 6 9 12 11 3 359 11 28 27 26 29 33 31 27 25 27 27 25 24 25 27 30 33 35 35 36 36 34 32 32 34 35 30 21 13
321 314 313 316 330 346 339 328 354 15 236 233 196 174 193 248 242 224 264 293 294 307 320 322 319 299 271 261 252 231 215 189 190 221 214 181 21 350 243 240 259 57 66 49 14 351 306 246 310 330 345 357 4 6 11 14 12 8 3 5 19 26 30 32 30 26 24 26 28 28 27 26 26 28 33 36 36 37 39 39 37 36 38 43 46 46 46
315 302 305 338 302 269 204 217 353 326 199 216 226 220 221 235 246 261 287 296 300 316 328 331 325 303 274 259 250 247 226 180 177 264 240 116 107 314 284 151 38 34 44 29 352 326 256 273 312 331 344 353 358 4 9 13 16 15 6 353 5 24 30 31 27 22 18 20 23 26 27 27 26 26 30 35 36 36 38 42 43 42 42 42 44 48 54
301 288 292 283 273 273 200 209 238 241 234 241 254 262 269 274 276 285 298 305 313 326 335 335 324 296 280 261 236 259 243 168 139 339 8 76 142 321 18 60 54 28 77 330 294 260 245 292 320 330 338 345 350 358 5 9 13 14 6 354 354 21 27 27 25 18 12 12 15 19 23 26 27 25 27 32 36 36 36 38 43 46 47 45 44 47 54
282 267 269 255 211 190 207 242 248 243 244 253 265 274 280 280 282 290 306 321 330 335 339 338 328 311 346 9 34 183 32 36 25 338 360 48 82 359 16 27 344 288 207 194 222 238 268 304 317 320 328 336 341 350 359 4 8 8 1 353 358 29 27 23 21 15 9 8 11 13 17 23 26 26 27 30 34 37 38 38 40 45 49 49 47 47 50
267 247 245 248 240 239 253 264 262 253 255 260 265 269 273 278 282 289 303 325 338 342 344 347 358 353 333 349 16 43 19 18 30 5 7 29 64 130 50 55 292 290 268 222 227 263 297 311 313 313 321 331 335 343 351 358 3 2 357 352 4 35 28 19 13 9 7 10 13 12 12 19 25 27 28 30 33 37 40 42 42 44 48 51 52 52 51
253 245 242 246 262 270 268 271 276 270 266 265 263 263 269 279 285 293 306 326 339 347 354 6 19 15 2 15 34 30 322 311 87 81 23 349 176 136 82 176 219 237 237 235 265 296 309 312 310 306 316 330 336 338 344 352 358 357 354 354 11 31 21 12 8 5 7 15 20 15 11 15 23 27 29 31 33 37 41 44 45 47 48 49 51 54 55
248 251 244 242 253 263 267 271 275 274 274 276 276 273 269 274 285 299 308 314 330 348 359 351 10 33 37 39 43 18 314 338 62 63 313 244 173 122 132 212 228 233 232 248 288 306 309 308 305 305 313 326 333 335 339 346 350 350 350 356 13 21 9 7 11 9 7 13 19 16 12 15 21 25 28 31 33 36 41 43 44 46 49 50 50 51 53
243 254 259 265 274 277 274 272 275 277 280 284 283 276 268 272 285 296 296 293 305 330 330 252 119 68 62 67 166 119 38 11 10 318 257 241 193 166 190 220 246 265 267 274 296 309 308 304 304 308 312 318 323 327 332 336 342 346 349 351 5 13 5 6 11 11 10 14 17 14 10 13 20 23 25 30 33 36 39 42 41 42 45 49 51 52 53